Estación de San Diego
Ultimos registro cada 15 minutos 69
| N° | Estación | Fecha / Hora | Temperatura | Humedad | Lluvia | Velocidad | Dirección | Radiación | Presion |
| 69 | San Diego | 07-05-2026 17:15 | 17,9 | 56 | 0 | 1,8 | 159 | 69 | 1022,6 |
| 68 | San Diego | 07-05-2026 16:45 | 18,4 | 55 | 0 | 3,1 | 178 | 127 | 1022,2 |
| 67 | San Diego | 07-05-2026 16:30 | 18,8 | 56 | 0 | 1,3 | 174 | 56 | 1022,2 |
| 66 | San Diego | 07-05-2026 16:15 | 19,2 | 56 | 0 | 0,4 | 194 | 229 | 1022,1 |
| 65 | San Diego | 07-05-2026 16:00 | 19,3 | 55 | 0 | 0,9 | 169 | 269 | 1021,9 |
| 64 | San Diego | 07-05-2026 15:45 | 19,4 | 54 | 0 | 0,9 | 189 | 311 | 1022 |
| 63 | San Diego | 07-05-2026 15:30 | 19,5 | 53 | 0 | 3,1 | 159 | 345 | 1022 |
| 62 | San Diego | 07-05-2026 15:15 | 19,6 | 54 | 0 | 2,7 | 143 | 381 | 1022 |
| 61 | San Diego | 07-05-2026 15:00 | 19,8 | 50 | 0 | 0,4 | 140 | 417 | 1022,1 |
| 60 | San Diego | 07-05-2026 14:45 | 19,6 | 51 | 0 | 1,8 | 164 | 445 | 1022,2 |
| 59 | San Diego | 07-05-2026 14:30 | 19,4 | 52 | 0 | 0,9 | 199 | 471 | 1022,3 |
| 58 | San Diego | 07-05-2026 14:15 | 19,3 | 54 | 0 | 3,1 | 133 | 492 | 1022,4 |
| 57 | San Diego | 07-05-2026 14:00 | 19,4 | 56 | 0 | 0,4 | 129 | 517 | 1022,5 |
| 56 | San Diego | 07-05-2026 13:45 | 19,1 | 54 | 0 | 2,7 | 126 | 534 | 1022,8 |
| 55 | San Diego | 07-05-2026 13:30 | 18,8 | 57 | 0 | 0,4 | 197 | 555 | 1023 |
| 54 | San Diego | 07-05-2026 13:15 | 18,8 | 62 | 0 | 0,4 | 154 | 563 | 1023,2 |
| 53 | San Diego | 07-05-2026 13:00 | 18,2 | 63 | 0 | 0,4 | 154 | 570 | 1023,6 |
| 52 | San Diego | 07-05-2026 12:45 | 18,1 | 66 | 0 | 0,4 | 208 | 575 | 1023,6 |
| 51 | San Diego | 07-05-2026 12:30 | 17,3 | 70 | 0 | 0,9 | 110 | 573 | 1024,1 |
| 50 | San Diego | 07-05-2026 12:15 | 16,9 | 74 | 0 | 0 | 154 | 570 | 1024,4 |
| 49 | San Diego | 07-05-2026 12:00 | 16,6 | 73 | 0 | 0,9 | 232 | 557 | 1024,5 |
| 48 | San Diego | 07-05-2026 11:45 | 16,2 | 74 | 0 | 0,4 | 203 | 543 | 1024,6 |
| 47 | San Diego | 07-05-2026 11:30 | 16,1 | 74 | 0 | 0 | 107 | 533 | 1024,5 |
| 46 | San Diego | 07-05-2026 11:15 | 15,6 | 77 | 0 | 0 | 20 | 519 | 1024,4 |
| 45 | San Diego | 07-05-2026 11:00 | 15,2 | 79 | 0 | 0,9 | 96 | 494 | 1024,7 |
| 44 | San Diego | 07-05-2026 10:45 | 14,7 | 81 | 0 | 0 | 47 | 432 | 1024,8 |
| 43 | San Diego | 07-05-2026 10:30 | 14,3 | 80 | 0 | 1,8 | 118 | 439 | 1024,7 |
| 42 | San Diego | 07-05-2026 10:15 | 13,7 | 82 | 0 | 0 | 99 | 408 | 1024,9 |
| 41 | San Diego | 07-05-2026 10:00 | 13,2 | 83 | 0 | 0 | 154 | 374 | 1025 |
| 40 | San Diego | 07-05-2026 09:45 | 12,7 | 85 | 0 | 0 | 350 | 341 | 1025 |
| 39 | San Diego | 07-05-2026 09:30 | 12,1 | 85 | 0 | 0 | 95 | 301 | 1025,2 |
| 38 | San Diego | 07-05-2026 09:15 | 11,3 | 88 | 0 | 0 | 24 | 267 | 1025,1 |
| 37 | San Diego | 07-05-2026 09:00 | 9,8 | 94 | 0 | 0 | 316 | 227 | 1025,3 |
| 36 | San Diego | 07-05-2026 08:45 | 8,6 | 95 | 0 | 0 | 353 | 105 | 1025 |
| 35 | San Diego | 07-05-2026 08:30 | 8,2 | 96 | 0 | 0 | 353 | 47 | 1024,7 |
| 34 | San Diego | 07-05-2026 08:15 | 7,7 | 96 | 0 | 0 | 285 | 37 | 1024,5 |
| 33 | San Diego | 07-05-2026 08:00 | 6,8 | 96 | 0 | 0 | 285 | 58 | 1024,2 |
| 32 | San Diego | 07-05-2026 07:45 | 6,6 | 95 | 0 | 0 | 276 | 28 | 1023,9 |
| 31 | San Diego | 07-05-2026 07:30 | 6,4 | 95 | 0 | 0 | 276 | 7 | 1023,8 |
| 30 | San Diego | 07-05-2026 07:15 | 6,5 | 95 | 0,2 | 0 | 276 | 0 | 1023,6 |
| 29 | San Diego | 07-05-2026 07:00 | 6,4 | 95 | 0 | 0 | 276 | 0 | 1023,7 |
| 28 | San Diego | 07-05-2026 06:45 | 5,9 | 95 | 0 | 0 | 276 | 0 | 1023,5 |
| 27 | San Diego | 07-05-2026 06:30 | 5,6 | 94 | 0 | 0 | 317 | 0 | 1023,3 |
| 26 | San Diego | 07-05-2026 06:15 | 5,9 | 94 | 0 | 0 | 328 | 0 | 1023,3 |
| 25 | San Diego | 07-05-2026 06:00 | 6,1 | 94 | 0 | 0 | 310 | 0 | 1023,2 |
| 24 | San Diego | 07-05-2026 05:45 | 6,1 | 93 | 0 | 0 | 310 | 0 | 1023,1 |
| 23 | San Diego | 07-05-2026 05:30 | 6,8 | 93 | 0 | 0 | 337 | 0 | 1022,9 |
| 22 | San Diego | 07-05-2026 05:15 | 6,9 | 94 | 0 | 0 | 337 | 0 | 1022,5 |
| 21 | San Diego | 07-05-2026 05:00 | 7 | 92 | 0 | 0 | 352 | 0 | 1022,4 |
| 20 | San Diego | 07-05-2026 04:45 | 7,3 | 92 | 0 | 0 | 352 | 0 | 1022,2 |
| 19 | San Diego | 07-05-2026 04:30 | 7,7 | 91 | 0 | 0 | 296 | 0 | 1022,1 |
| 18 | San Diego | 07-05-2026 04:15 | 8,1 | 91 | 0 | 0 | 289 | 0 | 1022,1 |
| 17 | San Diego | 07-05-2026 04:00 | 8,6 | 89 | 0 | 0 | 12 | 0 | 1022,5 |
| 16 | San Diego | 07-05-2026 03:45 | 9,5 | 86 | 0 | 0 | 295 | 0 | 1022,4 |
| 15 | San Diego | 07-05-2026 03:30 | 10,6 | 86 | 0 | 0 | 208 | 0 | 1022,7 |
| 14 | San Diego | 07-05-2026 03:15 | 10,8 | 85 | 0 | 0 | 190 | 0 | 1022,4 |
| 13 | San Diego | 07-05-2026 03:00 | 10,9 | 85 | 0 | 0,9 | 185 | 0 | 1022,3 |
| 12 | San Diego | 07-05-2026 02:45 | 10,6 | 86 | 0 | 0,4 | 223 | 0 | 1022,5 |
| 11 | San Diego | 07-05-2026 02:30 | 10,7 | 86 | 0 | 0 | 201 | 0 | 1022,1 |
| 10 | San Diego | 07-05-2026 02:15 | 10,3 | 89 | 0 | 0 | 179 | 0 | 1022,5 |
| 9 | San Diego | 07-05-2026 02:00 | 9,9 | 91 | 0 | 0 | 122 | 0 | 1022,3 |
| 8 | San Diego | 07-05-2026 01:45 | 10,2 | 89 | 0 | 0 | 101 | 0 | 1022,1 |
| 7 | San Diego | 07-05-2026 01:30 | 10,7 | 88 | 0 | 0 | 314 | 0 | 1022,1 |
| 6 | San Diego | 07-05-2026 01:15 | 11 | 87 | 0 | 0 | 128 | 0 | 1021,9 |
| 5 | San Diego | 07-05-2026 01:00 | 11,2 | 87 | 0 | 0 | 144 | 0 | 1021,9 |
| 4 | San Diego | 07-05-2026 00:45 | 11,2 | 87 | 0 | 0 | 145 | 0 | 1022 |
| 3 | San Diego | 07-05-2026 00:30 | 11,1 | 87 | 0 | 0 | 187 | 0 | 1022,1 |
| 2 | San Diego | 07-05-2026 00:15 | 11,3 | 86 | 0 | 0 | 188 | 0 | 1021,9 |
| 1 | San Diego | 07-05-2026 00:00 | 11,7 | 86 | 0 | 0 | 208 | 0 | 1021,9 |